Regional Weather Roundup
Issued by NWS

Home | Current Version | Previous Version | Text Only | Print | Product List | Glossary Off
Versions: 1 2 3 4 5 6 7 8 9 10 11 12 13 14 15 16 17 18 19 20 21 22 23 24 25 26 27 28 29 30 31 32 33 34 35 36 37 38 39 40 41 42 43 44 45 46 47 48 49 50

000
ASUS43 KDMX 201606
RWRIA

WEATHER ROUNDUP FOR IOWA
NATIONAL WEATHER SERVICE DES MOINES IA
1000 AM CST TUE FEB 20 2018

NOTE: "FAIR" INDICATES FEW OR NO CLOUDS BELOW 12,000 FEET WITH NO
SIGNIFICANT WEATHER AND/OR OBSTRUCTIONS TO VISIBILITY.

* - THESE STATIONS ARE NOT NWS STATIONS...THUS NOT UNDER NWS
QUALITY CONTROL.  THEY ALSO DO NOT REPORT WEATHER SUCH
AS PRECIPITATION OR FOG.

IAZ001>003-012>014-020>022-031>034-043>046-201700-
   NORTHWEST IOWA

CITY           SKY/WX    TMP DP  RH WIND       PRES   REMARKS
CARROLL *      FLURRIES  19  16  86 NW17      30.00R WCI   4
CHEROKEE *     FLURRIES  14  10  85 W10       30.04R WCI   1
DENISON *      FLURRIES  16  14  93 NW20      30.04R WCI  -1
LE MARS *      CLOUDY    10   5  79 NW16G23   30.08R WCI  -7
ORANGE CITY *  CLOUDY    10   9  92 NW17      30.03R WCI  -7
SHELDON *      FLURRIES  12   7  79 MISG      30.01R
SIOUX CITY     CLOUDY    11   4  73 NW20      30.09R WCI  -7
SPENCER        FLURRIES  15   9  76 NW20      29.99R WCI  -2
STORM LAKE *   FLURRIES  14  10  85 W18G25    29.99R WCI  -3
$$

IAZ055>058-069>071-079>083-090>094-201700-
   SOUTHWEST IOWA

CITY           SKY/WX    TMP DP  RH WIND       PRES   REMARKS
ATLANTIC *     FLURRIES  19  18  93 NW15G24   30.02F WCI   5
AUDUBON *      CLOUDY    19  16  86 NW6G16    30.01S WCI  11
CLARINDA *     CLOUDY    23  21  93 NW20      30.05R WCI   8
COUNCIL BLFS * FLURRIES  18  18 100 NW16G23   30.05R WCI   3
CRESTON *      CLOUDY    23  21  93 NW17      29.99R WCI   9
HARLAN  *      CLOUDY    18  18 100 NW18      30.06S WCI   2
LAMONI         CLOUDY    28  25  88 NW15      29.96R WCI  16
RED OAK *      CLOUDY    19  16  86 NW18G26   30.04F WCI   4
SHENANDOAH *   CLOUDY    21  18  86 NW16      30.05R WCI   7
$$

IAZ047>049-059>061-072>074-084-201700-
   CENTRAL IOWA

CITY           SKY/WX    TMP DP  RH WIND       PRES   REMARKS
AMES           CLOUDY    25  21  85 NW14      29.99R WCI  13
ANKENY *       CLOUDY    25  23  93 MISG      29.99F
BOONE *        CLOUDY    23  19  86 MISG      29.97R
CHARITON *     LGT SNOW  28  28 100 W9G16     29.97R WCI  20
DES MOINES     FLURRIES  26  22  84 NW12      29.98R WCI  16
GRINNELL*      MIX PCPN  30  29  96 W10       29.96R WCI  21
KNOXVILLE *    LGT RAIN  28  27  93 NW17G26   29.93F WCI  16
MARSHALLTOWN   MIX PCPN  25  23  92 W17       29.97R WCI  12
NEWTON *       LGT RAIN  27  27 100 NW14      29.94R WCI  15
PELLA *        LGT SNOW  30  28  94 NW10      29.93F WCI  21
PERRY *        CLOUDY    23  21  91 W16       30.00S WCI  10
$$

IAZ004>006-015-016-023>025-035-036-201700-
   NORTH CENTRAL IOWA

CITY           SKY/WX    TMP DP  RH WIND       PRES   REMARKS
ALGONA *       CLOUDY    18 N/A N/A NW17      29.95R WCI   2
CLARION *      CLOUDY    19  19 100 NW18      29.95R WCI   4
ESTHERVILLE    CLOUDY    13   8  81 NW20      29.97R WCI  -5
FORT DODGE *   CLOUDY    19  15  84 W13G18    29.99R WCI   6
MASON CITY     CLOUDY    20  17  88 NW16      29.93R WCI   6
FOREST CITY *  CLOUDY    21  19  93 NW10      29.92R WCI  10
WEBSTER CITY * CLOUDY    21  18  86 W18       29.96R WCI   6
IOWA FALLS *   CLOUDY    24  22  91 W13       29.96R WCI  13
$$

IAZ007>011-017>019-026>030-037>042-050>054-066-201700-
   NORTHEAST IOWA

CITY           SKY/WX    TMP DP  RH WIND       PRES   REMARKS
CEDAR RAPIDS   LGT RAIN  33  32  96 NW9       29.85R WCI  25
CHARLES CITY * CLOUDY    27  27 100 W12       29.90R WCI  16
CLINTON *      LGT RAIN  35  35 100 MISG        N/A  FOG
DECORAH *      CLOUDY    30  30 100 VRB7G14   29.82F WCI  23
DUBUQUE        RAIN      33  31  92 VRB3      29.82S FOG
MONTICELLO *   LGT RAIN  34  34 100 MISG      29.85F
OELWEIN *      CLOUDY    32  32 100 NW15      29.87S WCI  22
WATERLOO       CLOUDY    28  26  92 W10       29.91R WCI  19
$$

IAZ064-065-067-068-078-201700-
   EAST CENTRAL IOWA

CITY           SKY/WX    TMP DP  RH WIND       PRES   REMARKS
DAVENPORT      LGT RAIN  36  34  92 NW16G24   29.89R FOG     WCI  26
IOWA CITY      LGT RAIN  35  32  88 NW5       29.89R WCI  31
MT. PLEASANT * LGT RAIN  32  32 100 NW3       29.88S
MUSCATINE *    MIX PCPN  36  34  93 VRB5G20   29.88S WCI  32
QUAD CITIES    CLOUDY    38  36  92 W16       29.87R FOG     WCI  29
$$

IAZ062-063-075>077-085>089-095>099-201700-
   SOUTHEAST IOWA

CITY           SKY/WX    TMP DP  RH WIND       PRES   REMARKS
BURLINGTON     CLOUDY    35  33  92 NW10      29.89R WCI  27
FAIRFIELD *    CLOUDY    32  32 100 W9G17     29.93R FOG     WCI  24
FORT MADISON * CLOUDY    36  34  93 NW13G22   29.89R WCI  27
KEOKUK *       CLOUDY    36  36 100 NW17G23   29.90R FOG     WCI  25
OSKALOOSA *    MIX PCPN  31  30  96 NW9       29.93R WCI  23
OTTUMWA        FRZ RAIN  32  30  92 NW8       29.93R FOG     WCI  25
WASHINGTON *   LGT RAIN  34  34 100 W21       29.99R WCI  22
$$

ABBREVIATIONS USED IN REMARKS
   TC - TEMPERATURES IN CELSIUS
  WCI - WIND CHILL INDEX
   HX - HEAT INDEX
  VSB - VISIBILITY
$$





USA.gov is the U.S. government's official web portal to all federal, state and local government web resources and services.